Regional Weather Roundup
Issued by NWS San Angelo, TX

Home | Current Version | Previous Version | Text Only | Print | Product List | Glossary On
Versions: 1 2 3 4 5 6 7 8 9 10 11 12 13 14 15 16 17 18 19 20 21 22 23 24 25 26 27 28 29 30 31 32 33 34 35 36 37 38 39 40 41 42 43 44 45 46 47 48 49 50
000
ASUS44 KSJT 211910
RWRSJT
WEST CENTRAL TEXAS REGIONAL WEATHER ROUNDUP
NATIONAL WEATHER SERVICE SAN ANGELO TX
100 PM CST SUN DEC 21 2014

NOTE: "FAIR" INDICATES FEW OR NO CLOUDS BELOW 12,000 FEET WITH NO
SIGNIFICANT WEATHER AND/OR OBSTRUCTIONS TO VISIBILITY.

TXZ049-054-064>066-071>073-076>078-098-099-113-114-127-128-139-140-
154-155-168>170-212000
...LOCATIONS ACROSS WEST CENTRAL TEXAS...

CITY           SKY/WX    TMP DP  RH WIND       PRES   REMARKS
SAN ANGELO     PTSUNNY   57  43  59 S18G26    29.91F
ABILENE        SUNNY     56  43  61 S21G26    29.86F
DYESS AFB      SUNNY     58  42  54 S21       29.84F
JUNCTION       CLOUDY    52  46  80 SW13      29.97F
SWEETWATER     SUNNY     60  40  47 S20G28    29.87F
BROWNWOOD      CLOUDY    50  45  81 S14       29.92F
COLEMAN        CLOUDY    53  46  77 S13G20    29.91F
SONORA         CLOUDY    52  45  76 SW10G17   30.00F
OZONA          MOCLDY    54  43  66 S13G18    29.96F
BRADY          CLOUDY    52  45  76 S13       29.92F
$$

TEXAS PANHANDLE/OKLAHOMA PANHANDLE

CITY           SKY/WX    TMP DP  RH WIND       PRES   REMARKS
AMARILLO       SUNNY     55  25  31 W7        29.73F
BORGER         SUNNY     50  27  40 SW3       29.73F
CANADIAN       CLOUDY    47  40  76 S9        29.74F
DALHART        SUNNY     59  25  27 S10       29.70F
DUMAS          CLEAR     56  24  29 W6        29.71F
GUYMON         NOT AVBL
HEREFORD       PTCLDY    61  24  24 W8        29.73F
PAMPA          CLEAR     51  33  52 S9        29.72F
PERRYTON       SUNNY     49  37  63 S13       29.70F
$$

SOUTHERN PANHANDLE/SOUTH PLAINS/ROLLING PLAINS

CITY           SKY/WX    TMP DP  RH WIND       PRES   REMARKS
LUBBOCK        MOSUNNY   63  26  24 W28G38    29.76F
SNYDER         SUNNY     59  39  48 SW16      29.84F
CHILDRESS      SUNNY     59  34  39 SW13      29.75F
SEMINOLE       CLEAR     63  32  30 W15G21    29.85F
$$

PERMIAN BASIN

CITY           SKY/WX    TMP DP  RH WIND       PRES   REMARKS
MIDLAND        SUNNY     61  32  33 W20       29.88F
ODESSA         SUNNY     60  29  30 W15       29.89F
WINK           SUNNY     63  29  27 W14       29.89F
$$

FAR WEST/SOUTHWEST MOUNTAINS/TRANS PECOS

CITY           SKY/WX    TMP DP  RH WIND       PRES   REMARKS
ALPINE         CLEAR     63  22  21 W20G25    30.02F
DRYDEN           N/A     63  43  48 SW12      29.93F
EL PASO        PTSUNNY   54  28  36 SW20      30.01F
FORT STOCKTON  SUNNY     68  21  16 W13       29.90F
GUADALUPE PASS NOT AVBL
MARFA          SUNNY     61  25  25 W22       30.01F
PECOS          CLEAR     67  27  22 W23       29.91F
$$

DALLAS/FORT WORTH METROPLEX

CITY           SKY/WX    TMP DP  RH WIND       PRES   REMARKS
DFW AIRPORT    CLOUDY    50  44  80 SE13      29.95F
FTW MEACHAM    CLOUDY    51  45  79 S16       29.93F HAZE
DAL-EXECUTIVE  CLOUDY    52  44  74 SE15      29.96F
GRAND PRAIRIE  CLOUDY    50  46  87 S12       29.94F
ADDISON        NOT AVBL
MESQUITE       CLOUDY    50  45  81 SE10      30.00F
LANCASTER      CLOUDY    50  43  78 S9        29.99F
$$

NORTH CENTRAL TEXAS

CITY           SKY/WX    TMP DP  RH WIND       PRES   REMARKS
SHRMAN/DENISON CLOUDY    50  45  83 S13       29.96F
GAINESVILLE    CLOUDY    48  44  85 S12       29.95F
BRIDGEPORT     CLOUDY    49  47  91 S6        29.95F
DENTON         CLOUDY    49  44  83 S13       29.95F
WAXAHACHIE     CLOUDY    50  47  87 S13G18    29.98F
GRANBURY       CLOUDY    52  46  80 SE12      29.95F
$$

WESTERN NORTH TEXAS

CITY           SKY/WX    TMP DP  RH WIND       PRES   REMARKS
WICHITA FALLS  CLOUDY    49  44  83 S20G25    29.86F
VERNON         CLOUDY    56  42  61 S18       29.82F
BRECKENRIDGE   CLOUDY    55  45  68 S21       29.88F HAZE
COMANCHE       CLOUDY    51  46  83 S17       29.94F
$$

CENTRAL AND SOUTH CENTRAL TEXAS

CITY           SKY/WX    TMP DP  RH WIND       PRES   REMARKS
AUSTIN/BERGSTM CLOUDY    55  47  74 S9        30.01F
WACO           CLOUDY    54  46  74 S15       29.98F
HILLSBORO      CLOUDY    52  45  78 SE15      29.97F
TEMPLE         CLOUDY    54  43  66 S16       29.99F
KILLEEN-GRAY   CLOUDY    52  47  81 S14       29.97F
FORT HOOD      CLOUDY    53  46  77 S14       29.97F
GEORGETOWN     CLOUDY    54  45  71 S9        29.99F
LAGO VISTA     CLOUDY    52  48  84 S8        30.00F
SAN MARCOS     CLOUDY    55  46  71 SW9       30.03F
NEW BRAUNFELS  CLOUDY    55  50  83 SW6       30.01F
RANDOLPH AFB   CLOUDY    54  51  92 S8        30.00F
SAN ANTONIO    CLOUDY    55  50  83 S9        30.02F
STINSON        CLOUDY    54  52  93 S7        30.00F
PLEASANTON     NOT AVBL
LA GRANGE      PTSUNNY   55  51  83 CALM      30.01F
GIDDINGS       CLOUDY    53  47  82 CALM      30.06F
$$

EAST TEXAS

CITY           SKY/WX    TMP DP  RH WIND       PRES   REMARKS
PARIS          CLOUDY    48  41  76 S18       30.01F
CLARKSVILLE    NOT AVBL
TYLER          CLOUDY    52  44  74 SE6       30.01F
LONGVIEW       CLOUDY    49  42  77 SW3       30.04F
PALESTINE      CLOUDY    52  46  80 S7        30.05F
NACOGDOCHES    CLOUDY    50  43  76 CALM      30.05F
$$

TEXAS HILL COUNTRY AND EDWARDS PLATEAU

CITY           SKY/WX    TMP DP  RH WIND       PRES   REMARKS
LLANO          CLOUDY    54  48  82 SW7       30.01F
HORSESHOE BAY  CLOUDY    55  47  75 S6        30.00F
KERRVILLE      CLOUDY    51  48  90 S9        30.00F
FREDERICKSBRG  CLOUDY    50  47  87 SW10      29.98F
ROCKSPRINGS    CLOUDY    46  45  93 SW8       30.00F FOG
HONDO          CLOUDY    53  47  79 SW12      30.04F
UVALDE         CLOUDY    50  46  87 SW7       30.03F
DEL RIO        CLOUDY    53  48  83 SE7       30.00F
$$

SOUTHEAST TEXAS

CITY           SKY/WX    TMP DP  RH WIND       PRES   REMARKS
COLLEGE STN    CLOUDY    53  47  79 SW6       30.03F
CALDWELL       CLOUDY    52  48  87 SW7       30.06F
CROCKETT       CLOUDY    55  48  76 SE6       30.07F
BRENHAM        CLOUDY    55  49  80 S6        30.04F
HUNTSVILLE     CLOUDY    55  46  71 VRB5      30.02F
CONROE         PTSUNNY   56  47  71 CALM      30.03F
HOUSTON BUSH   PTSUNNY   59  48  67 E5        30.02F
HOUSTON HOBBY  PTSUNNY   60  49  66 NE6       30.02F
PERLAND        PTSUNNY   61  49  64 E7        30.03F
WHARTON        CLOUDY    58  51  77 N3        30.03F
$$

THE UPPER TEXAS COAST

CITY           SKY/WX    TMP DP  RH WIND       PRES   REMARKS
ORANGE         CLOUDY    54  49  83 CALM      30.08F
PORT ARTHUR    CLOUDY    56  49  77 VRB3      30.05F
GALVESTON      CLOUDY    58  51  78 NE8       30.04F
ANGLETON       CLOUDY    58  52  80 E8        30.02F
BAY CITY         N/A     59  54  83 CALM      30.02F
$$

TEXAS COASTAL BEND, RIO GRANDE PLAINS DEEP SOUTH TEXAS

CITY           SKY/WX    TMP DP  RH WIND       PRES   REMARKS
VICTORIA       PTSUNNY   62  52  69 CALM      30.03F
BEEVILLE       CLOUDY    59  53  82 CALM      30.03F
ROCKPORT       CLOUDY    59  51  75 NE7       30.02F
PORT ARANSAS   CLOUDY    58  54  85 NE10      30.01F
PORT LAVACA    CLOUDY    58  53  84 NE5       30.03F
CORPUS CHRISTI CLOUDY    59  53  80 NE8       30.02F
KINGSVILLE NAS CLOUDY    59  56  89 N8        30.02F
COTULLA        CLOUDY    56  50  80 W5        30.04F
LAREDO         NOT AVBL
BROWNSVILLE    CLOUDY    65  59  81 N12       30.00F
PORT ISABEL    CLOUDY    63  60  90 N14       29.99F FOG
HEBBRONVILLE   CLOUDY    59  53  79 E3        30.03F
MCALLEN        CLOUDY    60  56  86 N6        30.03F
WESLACO        CLOUDY    61  56  83 NW3       30.01F HAZE
FALFURRIAS     CLOUDY    58  53  84 NE5       30.03F
EDINBURG       CLOUDY    62  55  77 N3        30.03F
$$


USA.gov is the U.S. government's official web portal to all federal, state and local government web resources and services.